Torna al catalogo

CONNECTA IOT-12

AttivoComunicazioniSSO
NORAD 64553·PAYLOAD·🇹🇷 Turkey

Lanciato Jun 23, 2025 da Vandenberg Space Force Base

Loading…

Prossimi Passaggi (prossime 24 ore)

TLE

AggiornatoSource: Space-Track

Epoca: Sep 14, 2026, 07:16 UTC

1 64553U 25135AB  26257.30289246  .00002809  00000-0  12965-3 0  9990
2 64553  97.4825  12.1087 0002354  82.4080 277.7423 15.21049985 68410

Traccia CONNECTA IOT-12 in tempo reale con AllMySat

Download on the App Store